DECAYED

STARLINK-1974, 47629 (Decayed)

Orbit data source: Space-Track

STARLINK-1974, 47629 was a payload satellite owned by SpaceX/Seattle (US) in LEO that was launched on Tue, 16 Feb 2021 UTC via an FALCON 9 launch vehicle from the Air Force Eastern Test Range (AFETR). Payload-class satellites include a variety of spacecraft equipped with specific instruments for various scientific and technological missions. These include communications satellites like Starlink; space stations such as the ISS; scientific satellites like the Hubble; Earth observation satellites from companies like Planet Labs, Umbra, and HawkEye 360; GPS; miniature CubeSats for education and research; and military/defense satellites.

Not visible in the next 10 days
Identifier
47629, 2021-012K
Orbit
Decayed
Country
Flag of USUS
Related business
Manufacturer
SpaceX/Seattle
Mission
Decayed Commercial Communications
Bus & Motor
STARLINK, Unknown motor
Mass
260 kg wet, ~248 kg dry
Launch date (UTC)
2021-02-16 (5 years ago)
Launch vehicle
FALCON 9
Launch site
Air Force Eastern Test Range (AFETR)
Object type
Payload
Rocket body
Debris
Shape & HBR
Box + 1 Pan, 10.1 m
Radar Cross Section
13.562 m², Large (>1 m²)

Expand to show TLE details & history
Last TLE update: 1 year ago

TLE from 1 year ago
0 STARLINK-1974
1 47629U 21012K   25142.43555302  .12066024  12449-4  63060-3 0  9998
2 47629  53.0267 136.3079 0004988 280.5595 203.7600 16.42578914237844
Epoch: 2025-05-22T10:27Z
TLE epoch observation values (Epoch: 2025-05-22T10:27:11.780Z)
Latitude
41.43991°
Longitude
-122.15799°
Altitude
165.794 km
Speed
7.81 km/s
True Right ascension
18h 19m 47s
True Declination
41° 15' 14"
Sunlit
Object was in full shadow at epoch
Visualization orbit readout
Latitude
Unknown
Longitude
Unknown
Altitude
Unknown
Speed
Unknown
Apparent Right ascension
Unknown
Apparent Declination
Unknown
Sunlit
N/A
Visualization observer readout
Local Sidereal Time
21:39:37
Azimuth
Unknown
Elevation
Unknown
Doppler factor
Unknown
Orbital elements
Apogee altitude
162.503 km
Perigee altitude
155.981 km
Semi-major axis
6,537.379 km
Eccentricity
0.0005
Inclination
53.0267°
RAAN
136.3079°
Arg. of periapsis
280.5595°
True anomaly
203.73698°
Mean anomaly
203.76°
Eccentric anomaly
203.74849°
Mean motion
4.10618 °/min
Orbital period
87.67 mins
BSTAR
0.0006306
Loading maneuver chart data...
Computing Atmospheric mass density...

Documentation

Showing up to 5 results
|